Regional Weather Roundup
Issued by NWS

Home | Current Version | Previous Version | Graphics & Text | Print | Product List | Glossary On
Versions: 1 2 3 4 5 6 7 8 9 10 11 12 13 14 15 16 17 18 19 20 21 22 23 24 25 26 27 28 29 30 31 32 33 34 35 36 37 38 39 40 41 42 43 44 45 46 47 48 49 50
000
ASUS43 KLSX 240559
RWRMO

WEATHER SUMMARY FOR MISSOURI
NATIONAL WEATHER SERVICE SPRINGFIELD MO
100 AM CDT THU JUL 24 2014

NOTE: "FAIR" INDICATES FEW OR NO CLOUDS BELOW 12,000 FEET WITH NO
       SIGNIFICANT WEATHER AND/OR OBSTRUCTIONS TO VISIBILITY.
       CURRENT SKY AND/OR WEATHER CONDITIONS ARE NOT AVAILABLE FOR
       CHILLICOTHE AND FARMINGTON.

MOZ001>031-035>038-043-044-053-054-240700-
...NORTHERN AND WESTERN MISSOURI...

CITY           SKY/WX    TMP DP  RH WIND       PRES   REMARKS
KANSAS CTY INT PTCLDY    71  62  73 E6        30.15S
6HR MIN TEMP:  71; 6HR MAX TEMP:  83;

KANSAS C DTWN  CLEAR     73  62  68 NE8       30.14R
6HR MIN TEMP:  73; 6HR MAX TEMP:  86;

LEE`S SUMMIT   CLEAR     71  62  73 NE7       30.15S
6HR MIN TEMP:  71; 6HR MAX TEMP:  84;

ST JOSEPH      CLEAR     71  61  70 E5        30.15S
6HR MIN TEMP:  68; 6HR MAX TEMP:  83;

CHILLICOTHE      N/A     65  59  81 CALM      30.16S
6HR MIN TEMP:  65; 6HR MAX TEMP:  83;

KIRKSVILLE     CLEAR     60  56  86 CALM      30.16S
6HR MIN TEMP:  60; 6HR MAX TEMP:  78;


$$
MOZ066>068-077>081-088>096-101>105-240700-
...SOUTHWEST MISSOURI...

CITY           SKY/WX    TMP DP  RH WIND       PRES   REMARKS
SPRINGFIELD    CLEAR     73  65  75 NE7       30.09S
6HR MIN TEMP:  73; 6HR MAX TEMP:  89;

JOPLIN         CLEAR     71  67  87 NE5       30.09S
6HR MIN TEMP:  71; 6HR MAX TEMP:  86;


$$
MOZ032>034-039>042-045>050-055>058-069>072-240700-
...CENTRAL MISSOURI...

CITY           SKY/WX    TMP DP  RH WIND       PRES   REMARKS
COLUMBIA       CLEAR     65  59  81 NE6       30.13F
6HR MIN TEMP:  65; 6HR MAX TEMP:  83;

JEFFERSON CITY CLEAR     69  60  73 E5        30.11F
6HR MIN TEMP:  69; 6HR MAX TEMP:  84;

ROLLA          CLEAR     67  61  81 NE7       30.10F
6HR MIN TEMP:  67; 6HR MAX TEMP:  83;

SEDALIA        CLEAR     69  61  75 NE7       30.13F
6HR MIN TEMP:  69; 6HR MAX TEMP:  83;

OSAGE BEACH    CLEAR     70  61  73 NE6       30.11S

$$
MOZ051-052-059>065-240700-
...EAST CENTRAL MISSOURI...

CITY           SKY/WX    TMP DP  RH WIND       PRES   REMARKS
ST LOUIS INTL  CLEAR     69  58  67 NE7       30.12S
6HR MIN TEMP:  69; 6HR MAX TEMP:  81;

SPIRIT OF STL  CLEAR     63  60  90 CALM      30.10F
6HR MIN TEMP:  63; 6HR MAX TEMP:  81;

ST CHARLES     CLEAR     64  58  80 E7        30.11F
6HR MIN TEMP:  64; 6HR MAX TEMP:  79;


$$
MOZ072>076-082>087-097>100-106>115-240700-
...SOUTH CENTRAL AND SOUTHEAST MISSOURI...

CITY           SKY/WX    TMP DP  RH WIND       PRES   REMARKS
CAPE GIRARDEAU CLEAR     69  60  73 NE9       30.05F
6HR MIN TEMP:  69; 6HR MAX TEMP:  80;

FARMINGTON     CLEAR     66  57  72 NE8       30.12F
6HR MIN TEMP:  66; 6HR MAX TEMP:  81;

POPLAR BLUFF   CLOUDY    74  64  71 N9G16     30.04S
6HR MIN TEMP:  74; 6HR MAX TEMP:  77;

WEST PLAINS    PTCLDY    69  66  90 NE12      30.08F
6HR MIN TEMP:  67; 6HR MAX TEMP:  74;


$$



USA.gov is the U.S. government's official web portal to all federal, state and local government web resources and services.